CZ-4C R/B, 51285

Orbit data source: Space-Track

CZ-4C R/B, 51285 is space debris in SSO originally from a launch on Tue, 25 Jan 2022 UTC launched from the Jiuquan Satellite Launch Center, China (JSC). Debris objects in space refer to the collection of defunct objects orbiting the Earth. Examples of debris include non-operational satellites, rocket bodies, and fragments generated from explosions, collisions, or faulty payload assembly.

Loading next visibility...
Identifier
51285, 2022-007B
Orbit
SSO
Country
Flag of CNCN / PRC
Related business
Manufacturer
SAST
Mission
Spacecraft
Bus & Motor
CZ-4 STAGE 3, Unknown motor
Mass
~1,000 kg wet, ~1,000 kg dry
Launch date (UTC)
2022-01-25 (4 years ago)
Launch vehicle
Unknown
Launch site
Jiuquan Satellite Launch Center, China (JSC)
Object type
Payload
Rocket body
Debris
Shape & HBR
Cyl, 2.5 m
Radar Cross Section
14.536 m², Large (>1 m²)

Expand to show TLE details & history
Last TLE update: 16 hours ago

TLE from 16 hours ago
0 CZ-4C R/B
1 51285U 22007B   25312.70385691  .00152200  00000-0  90903-3 0  9998
2 51285  97.6973  48.7482 0033978 189.3167 170.7472 15.76611138211755
Epoch: 2025-11-08T16:53Z
TLE epoch observation values (Epoch: 2025-11-08T16:53:33.237Z)
Latitude
0.00001°
Longitude
107.23006°
Altitude
365.746 km
Speed
7.677 km/s
True Right ascension
03h 14m 59s
True Declination
0° 00' 00"
Sunlit
Object was in full shadow at epoch
Visualization orbit readout
Latitude
Unknown
Longitude
Unknown
Altitude
Unknown
Speed
Unknown
Apparent Right ascension
Unknown
Apparent Declination
Unknown
Sunlit
N/A
Visualization observer readout
Local Sidereal Time
05:11:09
Azimuth
Unknown
Elevation
Unknown
Doppler factor
Unknown
Orbital elements
Apogee altitude
359.771 km
Perigee altitude
314.138 km
Semi-major axis
6,715.091 km
Eccentricity
0.0034
Inclination
97.6973°
RAAN
48.7482°
Arg. of periapsis
189.3167°
True anomaly
170.80954°
Mean anomaly
170.7472°
Eccentric anomaly
170.7784°
Mean motion
3.94426 °/min
Orbital period
91.27 mins
BSTAR
0.00090903
Loading maneuver chart data...
Computing Atmospheric mass density...
Loading historical data...
Loading historical data...
Loading historical data...
Loading historical data...
Loading historical data...
Loading historical data...
Loading historical data...
Other satellites on launch #7 in the year 2022 (2022-01-25 UTC)

Documentation

Showing up to 5 results
|